Time,TemperatureF,DewpointF,PressureIn,WindDirection,WindDirectionDegrees,WindSpeedMPH,WindSpeedGustMPH,Humidity,HourlyPrecipIn,Conditions,Clouds,dailyrainin,SoftwareType,DateUTC
2013-09-04 00:10:00,62.8,55.0,30.08,North,5,0.0,-999.0,75,-99.99,,,0.00,weatherlink.com 1.10,2013-09-04 05:10:00,
2013-09-04 00:25:00,62.9,55.0,30.09,North,5,0.0,-999.0,75,-99.99,,,0.00,weatherlink.com 1.10,2013-09-04 05:25:00,
2013-09-04 00:40:00,62.4,54.0,30.09,North,5,0.0,-999.0,74,-99.99,,,0.00,weatherlink.com 1.10,2013-09-04 05:40:00,
2013-09-04 00:55:00,64.0,55.0,30.09,ENE,73,0.0,-999.0,72,-99.99,,,0.00,weatherlink.com 1.10,2013-09-04 05:55:00,
2013-09-04 01:10:00,63.2,56.0,30.09,ENE,73,0.0,-999.0,76,-99.99,,,0.00,weatherlink.com 1.10,2013-09-04 06:10:00,
2013-09-04 01:25:00,61.9,55.0,30.09,ENE,73,0.0,-999.0,77,-99.99,,,0.00,weatherlink.com 1.10,2013-09-04 06:25:00,
2013-09-04 01:40:00,60.9,54.0,30.09,ENE,73,0.0,-999.0,78,-99.99,,,0.00,weatherlink.com 1.10,2013-09-04 06:40:00,
2013-09-04 01:55:00,61.2,55.0,30.10,ENE,73,0.0,-999.0,79,-99.99,,,0.00,weatherlink.com 1.10,2013-09-04 06:55:00,
2013-09-04 02:10:00,61.6,55.0,30.10,ENE,73,0.0,-999.0,80,-99.99,,,0.00,weatherlink.com 1.10,2013-09-04 07:10:00,
2013-09-04 02:26:00,62.2,55.0,30.10,ENE,73,0.0,-999.0,76,-99.99,,,0.00,weatherlink.com 1.10,2013-09-04 07:26:00,
2013-09-04 02:41:00,61.2,55.0,30.11,ENE,73,0.0,-999.0,79,-99.99,,,0.00,weatherlink.com 1.10,2013-09-04 07:41:00,
2013-09-04 02:56:00,60.9,54.0,30.11,ENE,73,0.0,-999.0,79,-99.99,,,0.00,weatherlink.com 1.10,2013-09-04 07:56:00,
2013-09-04 03:11:00,59.8,54.0,30.11,ENE,73,0.0,-999.0,81,-99.99,,,0.00,weatherlink.com 1.10,2013-09-04 08:11:00,
2013-09-04 03:26:00,60.1,55.0,30.12,ENE,73,0.0,-999.0,83,-99.99,,,0.00,weatherlink.com 1.10,2013-09-04 08:26:00,
2013-09-04 03:41:00,61.5,56.0,30.12,ENE,73,0.0,-999.0,82,-99.99,,,0.00,weatherlink.com 1.10,2013-09-04 08:41:00,
2013-09-04 03:56:00,62.1,56.0,30.12,ENE,73,0.0,-999.0,79,-99.99,,,0.00,weatherlink.com 1.10,2013-09-04 08:56:00,
2013-09-04 04:11:00,62.2,56.0,30.12,ENE,73,0.0,-999.0,80,-99.99,,,0.00,weatherlink.com 1.10,2013-09-04 09:11:00,
2013-09-04 04:26:00,62.5,56.0,30.12,ENE,73,0.0,-999.0,79,-99.99,,,0.00,weatherlink.com 1.10,2013-09-04 09:26:00,
2013-09-04 04:41:00,62.6,56.0,30.12,ENE,73,0.0,-999.0,80,-99.99,,,0.00,weatherlink.com 1.10,2013-09-04 09:41:00,
2013-09-04 04:56:00,63.1,57.0,30.12,ENE,73,0.0,-999.0,79,-99.99,,,0.00,weatherlink.com 1.10,2013-09-04 09:56:00,
2013-09-04 05:12:00,62.8,57.0,30.13,SSW,204,2.0,-999.0,81,-99.99,,,0.00,weatherlink.com 1.10,2013-09-04 10:12:00,
2013-09-04 05:27:00,63.1,56.0,30.13,SSW,209,0.0,-999.0,78,-99.99,,,0.00,weatherlink.com 1.10,2013-09-04 10:27:00,
2013-09-04 05:42:00,63.4,56.0,30.13,SSW,209,0.0,-999.0,78,-99.99,,,0.00,weatherlink.com 1.10,2013-09-04 10:42:00,
2013-09-04 05:57:00,62.3,56.0,30.13,SSW,209,0.0,-999.0,80,-99.99,,,0.00,weatherlink.com 1.10,2013-09-04 10:57:00,
2013-09-04 06:12:00,60.4,56.0,30.13,SSW,209,0.0,-999.0,84,-99.99,,,0.00,weatherlink.com 1.10,2013-09-04 11:12:00,
2013-09-04 06:27:00,59.0,55.0,30.14,SSW,209,0.0,-999.0,87,-99.99,,,0.00,weatherlink.com 1.10,2013-09-04 11:27:00,
2013-09-04 06:42:00,58.1,54.0,30.14,SSW,209,0.0,-999.0,87,-99.99,,,0.00,weatherlink.com 1.10,2013-09-04 11:42:00,
2013-09-04 06:57:00,58.0,54.0,30.14,SSW,209,0.0,-999.0,87,-99.99,,,0.00,weatherlink.com 1.10,2013-09-04 11:57:00,
2013-09-04 07:12:00,57.4,54.0,30.15,SSW,209,0.0,-999.0,88,-99.99,,,0.00,weatherlink.com 1.10,2013-09-04 12:12:00,
2013-09-04 07:27:00,57.7,54.0,30.15,SSW,209,0.0,-999.0,88,-99.99,,,0.00,weatherlink.com 1.10,2013-09-04 12:27:00,
2013-09-04 07:42:00,58.5,55.0,30.16,SSW,209,0.0,-999.0,88,-99.99,,,0.00,weatherlink.com 1.10,2013-09-04 12:42:00,
2013-09-04 07:57:00,59.5,56.0,30.16,SSW,209,0.0,-999.0,88,-99.99,,,0.00,weatherlink.com 1.10,2013-09-04 12:57:00,
2013-09-04 08:13:00,60.4,57.0,30.16,SSW,209,0.0,-999.0,88,-99.99,,,0.00,weatherlink.com 1.10,2013-09-04 13:13:00,
2013-09-04 08:28:00,62.7,59.0,30.16,SSW,209,0.0,-999.0,86,-99.99,,,0.00,weatherlink.com 1.10,2013-09-04 13:28:00,
2013-09-04 08:43:00,65.1,60.0,30.17,SSW,207,0.0,-999.0,82,-99.99,,,0.00,weatherlink.com 1.10,2013-09-04 13:43:00,
2013-09-04 08:58:00,66.5,59.0,30.17,SSW,207,0.0,-999.0,78,-99.99,,,0.00,weatherlink.com 1.10,2013-09-04 13:58:00,
2013-09-04 09:13:00,67.9,60.0,30.17,SSW,207,0.0,-999.0,75,-99.99,,,0.00,weatherlink.com 1.10,2013-09-04 14:13:00,
2013-09-04 09:28:00,70.1,59.0,30.17,SW,234,1.0,-999.0,67,-99.99,,,0.00,weatherlink.com 1.10,2013-09-04 14:28:00,
2013-09-04 09:43:00,71.2,57.0,30.17,WSW,246,2.0,-999.0,61,-99.99,,,0.00,weatherlink.com 1.10,2013-09-04 14:43:00,
2013-09-04 09:58:00,72.1,58.0,30.18,WSW,247,1.0,-999.0,62,-99.99,,,0.00,weatherlink.com 1.10,2013-09-04 14:58:00,
2013-09-04 10:14:00,73.1,60.0,30.17,WSW,256,1.0,-999.0,63,-99.99,,,0.00,weatherlink.com 1.10,2013-09-04 15:14:00,
2013-09-04 10:29:00,74.7,60.0,30.17,SSW,205,3.0,-999.0,61,-99.99,,,0.00,weatherlink.com 1.10,2013-09-04 15:29:00,
2013-09-04 10:44:00,76.0,61.0,30.17,WSW,240,3.0,-999.0,59,-99.99,,,0.00,weatherlink.com 1.10,2013-09-04 15:44:00,
2013-09-04 10:59:00,77.2,59.0,30.18,SSW,207,0.0,-999.0,54,-99.99,,,0.00,weatherlink.com 1.10,2013-09-04 15:59:00,
2013-09-04 11:14:00,78.4,61.0,30.18,West,280,2.0,-999.0,56,-99.99,,,0.00,weatherlink.com 1.10,2013-09-04 16:14:00,
2013-09-04 11:29:00,79.6,62.0,30.17,WNW,288,1.0,-999.0,56,-99.99,,,0.00,weatherlink.com 1.10,2013-09-04 16:29:00,
2013-09-04 11:44:00,81.1,62.0,30.17,WNW,290,0.0,-999.0,53,-99.99,,,0.00,weatherlink.com 1.10,2013-09-04 16:44:00,
2013-09-04 11:59:00,82.3,63.0,30.16,SW,221,2.0,-999.0,53,-99.99,,,0.00,weatherlink.com 1.10,2013-09-04 16:59:00,
2013-09-04 12:15:00,82.6,63.0,30.16,West,279,0.0,-999.0,51,-99.99,,,0.00,weatherlink.com 1.10,2013-09-04 17:15:00,
2013-09-04 12:30:00,83.8,62.0,30.16,WNW,296,0.0,-999.0,48,-99.99,,,0.00,weatherlink.com 1.10,2013-09-04 17:30:00,
2013-09-04 12:45:00,83.8,63.0,30.16,South,182,2.0,-999.0,50,-99.99,,,0.00,weatherlink.com 1.10,2013-09-04 17:45:00,
2013-09-04 13:00:00,84.5,64.0,30.16,SSW,203,5.0,-999.0,51,-99.99,,,0.00,weatherlink.com 1.10,2013-09-04 18:00:00,
2013-09-04 13:15:00,85.4,63.0,30.15,WSW,244,2.0,-999.0,47,-99.99,,,0.00,weatherlink.com 1.10,2013-09-04 18:15:00,
2013-09-04 13:30:00,85.9,63.0,30.15,West,267,0.0,-999.0,47,-99.99,,,0.00,weatherlink.com 1.10,2013-09-04 18:30:00,
2013-09-04 13:45:00,86.0,61.0,30.14,SSW,209,7.0,-999.0,43,-99.99,,,0.00,weatherlink.com 1.10,2013-09-04 18:45:00,
2013-09-04 14:00:00,86.5,63.0,30.14,WSW,240,6.0,-999.0,46,-99.99,,,0.00,weatherlink.com 1.10,2013-09-04 19:00:00,
2013-09-04 14:15:00,87.0,63.0,30.13,SW,233,4.0,-999.0,45,-99.99,,,0.00,weatherlink.com 1.10,2013-09-04 19:15:00,
2013-09-04 14:30:00,87.2,63.0,30.13,SSW,208,2.0,-999.0,44,-99.99,,,0.00,weatherlink.com 1.10,2013-09-04 19:30:00,
2013-09-04 14:45:00,87.5,63.0,30.12,SSW,195,4.0,-999.0,44,-99.99,,,0.00,weatherlink.com 1.10,2013-09-04 19:45:00,
2013-09-04 15:01:00,88.2,63.0,30.12,NW,306,0.0,-999.0,43,-99.99,,,0.00,weatherlink.com 1.10,2013-09-04 20:01:00,
2013-09-04 15:16:00,88.2,62.0,30.12,West,278,0.0,-999.0,42,-99.99,,,0.00,weatherlink.com 1.10,2013-09-04 20:16:00,
2013-09-04 15:31:00,88.7,63.0,30.11,WNW,290,0.0,-999.0,43,-99.99,,,0.00,weatherlink.com 1.10,2013-09-04 20:31:00,
2013-09-04 15:46:00,88.3,63.0,30.11,WSW,245,5.0,-999.0,43,-99.99,,,0.00,weatherlink.com 1.10,2013-09-04 20:46:00,
2013-09-04 16:01:00,88.5,63.0,30.11,West,267,0.0,-999.0,43,-99.99,,,0.00,weatherlink.com 1.10,2013-09-04 21:01:00,
2013-09-04 16:16:00,89.0,64.0,30.10,West,259,0.0,-999.0,44,-99.99,,,0.00,weatherlink.com 1.10,2013-09-04 21:16:00,
2013-09-04 16:31:00,88.7,63.0,30.10,WSW,248,3.0,-999.0,43,-99.99,,,0.00,weatherlink.com 1.10,2013-09-04 21:31:00,
2013-09-04 16:46:00,88.9,64.0,30.10,SSW,199,2.0,-999.0,43,-99.99,,,0.00,weatherlink.com 1.10,2013-09-04 21:46:00,
2013-09-04 17:01:00,88.9,64.0,30.10,West,280,3.0,-999.0,43,-99.99,,,0.00,weatherlink.com 1.10,2013-09-04 22:01:00,
2013-09-04 17:16:00,88.8,62.0,30.10,SW,220,4.0,-999.0,41,-99.99,,,0.00,weatherlink.com 1.10,2013-09-04 22:16:00,
2013-09-04 17:31:00,88.7,61.0,30.10,West,259,1.0,-999.0,40,-99.99,,,0.00,weatherlink.com 1.10,2013-09-04 22:31:00,
2013-09-04 17:46:00,88.9,62.0,30.10,WSW,244,2.0,-999.0,40,-99.99,,,0.00,weatherlink.com 1.10,2013-09-04 22:46:00,
2013-09-04 18:01:00,88.3,62.0,30.10,SW,234,0.0,-999.0,42,-99.99,,,0.00,weatherlink.com 1.10,2013-09-04 23:01:00,
2013-09-04 18:17:00,88.5,63.0,30.10,SW,231,0.0,-999.0,43,-99.99,,,0.00,weatherlink.com 1.10,2013-09-04 23:17:00,
2013-09-04 18:32:00,88.3,63.0,30.10,SW,231,0.0,-999.0,43,-99.99,,,0.00,weatherlink.com 1.10,2013-09-04 23:32:00,
2013-09-04 18:47:00,88.1,63.0,30.10,SW,231,0.0,-999.0,43,-99.99,,,0.00,weatherlink.com 1.10,2013-09-04 23:47:00,
2013-09-04 19:02:00,88.0,63.0,30.10,SW,231,0.0,-999.0,44,-99.99,,,0.00,weatherlink.com 1.10,2013-09-05 00:02:00,
2013-09-04 19:17:00,86.2,64.0,30.10,SW,231,0.0,-999.0,48,-99.99,,,0.00,weatherlink.com 1.10,2013-09-05 00:17:00,
2013-09-04 19:32:00,83.4,64.0,30.10,SW,231,0.0,-999.0,52,-99.99,,,0.00,weatherlink.com 1.10,2013-09-05 00:32:00,
2013-09-04 19:47:00,81.9,64.0,30.11,SW,231,0.0,-999.0,54,-99.99,,,0.00,weatherlink.com 1.10,2013-09-05 00:47:00,
2013-09-04 20:02:00,80.6,64.0,30.11,SW,231,0.0,-999.0,57,-99.99,,,0.00,weatherlink.com 1.10,2013-09-05 01:02:00,
2013-09-04 20:17:00,80.2,64.0,30.11,SW,231,0.0,-999.0,59,-99.99,,,0.00,weatherlink.com 1.10,2013-09-05 01:17:00,
2013-09-04 20:32:00,78.9,66.0,30.11,SW,231,0.0,-999.0,65,-99.99,,,0.00,weatherlink.com 1.10,2013-09-05 01:32:00,
2013-09-04 20:47:00,77.5,63.0,30.11,SW,231,0.0,-999.0,61,-99.99,,,0.00,weatherlink.com 1.10,2013-09-05 01:47:00,
2013-09-04 21:02:00,76.7,63.0,30.11,SW,231,0.0,-999.0,62,-99.99,,,0.00,weatherlink.com 1.10,2013-09-05 02:02:00,
2013-09-04 21:17:00,77.0,63.0,30.12,SW,231,0.0,-999.0,62,-99.99,,,0.00,weatherlink.com 1.10,2013-09-05 02:17:00,
2013-09-04 21:33:00,76.3,65.0,30.12,SW,231,0.0,-999.0,68,-99.99,,,0.00,weatherlink.com 1.10,2013-09-05 02:33:00,
2013-09-04 21:48:00,75.6,65.0,30.12,SW,231,0.0,-999.0,70,-99.99,,,0.00,weatherlink.com 1.10,2013-09-05 02:48:00,
2013-09-04 22:03:00,74.4,64.0,30.12,SSW,193,1.0,-999.0,71,-99.99,,,0.00,weatherlink.com 1.10,2013-09-05 03:03:00,
2013-09-04 22:18:00,74.8,66.0,30.13,SSW,193,0.0,-999.0,73,-99.99,,,0.00,weatherlink.com 1.10,2013-09-05 03:18:00,
2013-09-04 22:33:00,74.0,65.0,30.13,SSW,193,0.0,-999.0,74,-99.99,,,0.00,weatherlink.com 1.10,2013-09-05 03:33:00,
2013-09-04 22:48:00,73.9,66.0,30.13,SSW,193,0.0,-999.0,76,-99.99,,,0.00,weatherlink.com 1.10,2013-09-05 03:48:00,
2013-09-04 23:03:00,73.8,66.0,30.14,SSW,193,0.0,-999.0,77,-99.99,,,0.00,weatherlink.com 1.10,2013-09-05 04:03:00,
2013-09-04 23:18:00,73.2,66.0,30.13,SSW,193,0.0,-999.0,79,-99.99,,,0.00,weatherlink.com 1.10,2013-09-05 04:18:00,
2013-09-04 23:33:00,73.8,67.0,30.13,SSW,193,0.0,-999.0,79,-99.99,,,0.00,weatherlink.com 1.10,2013-09-05 04:33:00,
2013-09-04 23:48:00,73.9,67.0,30.13,SSW,193,0.0,-999.0,79,-99.99,,,0.00,weatherlink.com 1.10,2013-09-05 04:48:00,